Overview Statistics Trail Chart Weather Telemetry Raw packets
 

This is the latest recevied weather packets stored in our database for station/object YO3FVR-WX. If no packets are shown the sender has not sent any weather packets the latest 10 day(s).

<< 41 42 43 44 45 46 47 >>
Time Temp. Humidity Pressure Rain* Wind** Luminosity Snow
1787984641 19.44° C 72% 1015.9 hPa 0 mm - - -
1787984041 18.89° C 72% 1015.8 hPa 0 mm - - -
1787983411 18.33° C 73% 1016 hPa 0 mm - - -
1787982781 18.33° C 73% 1016.1 hPa 0 mm - - -
1787982151 17.78° C 74% 1015.9 hPa 0 mm - - -
1787981551 17.22° C 75% 1015.9 hPa 0 mm - - -
1787980951 17.22° C 75% 1015.8 hPa 0 mm - - -
1787980351 16.67° C 76% 1015.8 hPa 0 mm - - -
1787979721 16.67° C 77% 1015.9 hPa 0 mm - - -
1787979121 16.67° C 77% 1015.8 hPa 0 mm - - -
1787978521 16.11° C 77% 1015.7 hPa 0 mm - - -
1787977891 16.11° C 77% 1015.8 hPa 0 mm - - -
1787977261 15.56° C 77% 1015.8 hPa 0 mm - - -
1787976661 15.56° C 77% 1015.9 hPa 0 mm - - -
1787976031 15.56° C 77% 1015.9 hPa 0 mm - - -
1787975401 15.56° C 76% 1015.9 hPa 0 mm - - -
1787974771 15.56° C 76% 1016 hPa 0 mm - - -
1787974141 15.56° C 76% 1016.1 hPa 0 mm - - -
1787973541 16.11° C 76% 1016 hPa 0 mm - - -
1787972911 16.11° C 75% 1015.9 hPa 0 mm - - -
1787972281 16.11° C 75% 1016.1 hPa 0 mm - - -
1787971651 16.11° C 74% 1016 hPa 0 mm - - -
1787971051 16.67° C 74% 1016.1 hPa 0 mm - - -
1787970421 16.67° C 74% 1016.1 hPa 0 mm - - -
1787969791 16.67° C 73% 1016 hPa 0 mm - - -

* Rain latest hour (hover to see other rain measurements)
** Current wind speed in m/s (hover to see current wind gust speed)